www.pogodaiklimat.ru

Погода и климат >> Архив погоды >> Россия >> Волгоградская область >> Палласовка


ПОГОДА в Палласовке

  • Прогноз погоды в Палласовке
  • Монитор погоды в Палласовке

АРХИВ ПОГОДЫ в Палласовке

Время (UTC), дата Ветер
(напр.,м/с)
 
Видим.   Явления Облачность Т
(С)
Тd
(С)
f
(%)
Тe
(С)
Тes
(С)
Комфортность P
(гПа)
Po
(гПа)
Тmin
(С)
Tmax
(С)
R
(мм)
R24
(мм)
S
(см)
21 18.08 ЮВ 2 10 км ясно +24.4 +7.0 33 +25 +25 комфорт 1015.5 1011.4
00 19.08 В 2 10 км ясно +20.4 +7.5 43 +22 +22 комфорт 1015.9 1011.7
03 19.08 В 2 10 км 6/0
[Ci fib]
+18.4 +8.7 53 +19 +20 1016.5 1012.3 +17.2
06 19.08 В 3 10 км 8/0
[Ci fib]
+28.4 +8.8 29 +28 +34 жарко 1016.3 1012.2
09 19.08 Ю 2 10 км 10/10 600 м
[Cb calv]
+31.3 +8.1 24 +30 +30 жарко 1016.7 1012.7
12 19.08 ЮВ 3 10 км 6/0
[Ci fib]
+35.5 +3.0 13 +32 +38 жарко 1016.2 1012.2
15 19.08 В 2 10 км 5/0
[Ci fib]
+33.5 +7.4 20 +32 +32 жарко 1016.0 1012.0 +36.4
18 19.08 ЮВ 2 10 км 3/0
[Ci fib]
+26.4 +7.7 31 +26 +26 жарко 1016.9 1012.8
21 19.08 ЮВ 4 10 км ясно +26.9 +5.2 25 +26 +26 жарко 1017.6 1013.5
00 20.08 ЮВ 2 10 км 5/0
[Ci fib]
+22.7 +6.1 34 +23 +23 комфорт 1018.1 1014.0
03 20.08 Ю 1 10 км 6/0
[Ci fib]
+20.3 +8.3 46 +23 +23 комфорт 1018.9 1014.7 +20.3
06 20.08 Ю 2 10 км 5/0
[Ci fib]
+31.0 +8.9 25 +30 +38 жарко 1019.1 1015.0 +19.7
09 20.08 Ю 2 10 км ясно +36.7 +2.6 12 +33 +47 жарко 1018.4 1014.4
12 20.08 Ю 2
{10}
10 км ясно +37.7 +3.5 12 +35 +42 очень
жарко
1017.1 1013.1
15 20.08 штиль 0 10 км ясно +34.3 +8.7 21 +33 +33 жарко 1016.5 1012.6 +37.8
18 20.08 СЗ 1 10 км ясно +24.3 +10.5 42 +25 +25 комфорт 1017.1 1013.0
21 20.08 СЗ 1 н/о н/о +21.9 +9.7 46 +23 +23 комфорт 1017.1 1012.9
00 21.08 ЮЗ 1 10 км ясно +17.9 +11.2 65 +19 +19 1017.4 1013.2
03 21.08 З 2 10 км ясно +18.6 +12.8 69 +20 +20 1017.4 1013.2 +17.7
06 21.08 СЗ 4 10 км ясно +27.3 +14.7 46 +30 +35 душно 1017.6 1013.6
09 21.08 С 4
{10}
10 км ясно +32.7 +13.2 31 +34 +43 очень
жарко
1017.2 1013.2
12 21.08 С 5 10 км ясно +33.4 +11.3 26 +33 +37 жарко 1016.6 1012.6
15 21.08 С 5
{10}
10 км ясно +31.0 +10.4 28 +31 +31 жарко 1017.0 1013.0 +33.5
18 21.08 СЗ 3 10 км ясно +25.4 +12.6 45 +27 +27 жарко 1017.9 1013.8
21 21.08 С 3 10 км ясно +22.8 +13.3 55 +26 +26 жарко 1018.4 1014.3
00 22.08 С 3 10 км ясно +21.1 +12.9 59 +23 +23 комфорт 1018.3 1014.1
03 22.08 С 3 10 км ясно +19.4 +13.1 67 +21 +22 комфорт 1019.0 1014.8 +19.0
06 22.08 СВ 4 10 км ясно +26.0 +13.6 46 +28 +33 жарко 1019.3 1015.2
09 22.08 С 3 10 км ясно +29.9 +11.1 31 +30 +41 жарко 1018.5 1014.5
12 22.08 С 3 10 км ясно +31.9 +10.0 26 +31 +37 жарко 1017.4 1013.4
15 22.08 СВ 1 10 км ясно +30.5 +9.5 27 +30 +30 жарко 1017.1 1013.0 +32.1
18 22.08 С 2 10 км ясно +22.0 +9.1 44 +23 +23 комфорт 1018.0 1013.9
21 22.08 С 2 10 км ясно +19.3 +10.4 56 +21 +21 комфорт 1018.3 1014.1
00 23.08 С 2 10 км ясно +18.0 +11.1 64 +19 +19 1018.0 1013.7
03 23.08 С 1 10 км 3/0
[Ci fib]
+18.0 +11.7 67 +19 +20 1018.7 1014.5 +16.5
06 23.08 С 2 10 км 5/0
[Ci fib]
+26.8 +11.5 38 +28 +35 жарко 1018.9 1014.8
09 23.08 С 3 10 км 3/0
[Ci fib]
+32.8 +8.9 23 +32 +42 жарко 1018.3 1014.3
12 23.08 С 2 10 км 3/0
[Ci fib]
+34.4 +7.5 19 +33 +39 жарко 1017.3 1013.3
15 23.08 С 3 10 км 5/0
[Ci fib]
+31.4 +8.8 25 +31 +31 жарко 1017.2 1013.2 +34.4
18 23.08 С 3 10 км ясно +26.9 +9.7 34 +27 +27 жарко 1018.3 1014.2
21 23.08 С 3 10 км ясно +22.4 +11.1 49 +25 +25 комфорт 1018.3 1014.1
00 24.08 С 3 10 км ясно +20.8 +15.3 71 +24 +24 комфорт 1018.4 1014.2
03 24.08 С 3 10 км 5/0
[Ci fib]
+19.2 +13.6 70 +21 +21 комфорт 1019.8 1015.6 +18.9
06 24.08 С 3 10 км ясно +25.0 +13.0 47 +27 +33 жарко 1019.8 1015.7
09 24.08 С 4
{10}
10 км ясно +31.2 +11.4 30 +32 +40 жарко 1018.8 1014.8
12 24.08 С 4
{11}
10 км ясно +31.8 +11.6 29 +32 +37 жарко 1018.2 1014.2
15 24.08 С 4 10 км ясно +29.5 +10.3 30 +30 +30 жарко 1018.2 1014.1 +32.2
18 24.08 СЗ 2 10 км ясно +22.7 +8.5 40 +24 +24 комфорт 1019.2 1015.0
21 24.08 СЗ 2 10 км ясно +19.5 +7.6 46 +21 +21 комфорт 1018.9 1014.7
00 25.08 СЗ 2 н/о н/о +16.1 +7.3 56 +16 +16 1018.8 1014.5
03 25.08 С 2 10 км ясно +16.6 +7.6 55 +17 +17 1019.0 1014.8 +15.1
06 25.08 С 3 10 км ясно +25.9 +6.1 28 +25 +32 комфорт 1019.4 1015.3
09 25.08 СЗ 3 10 км ясно +28.8 +4.7 22 +27 +38 жарко 1018.4 1014.3
12 25.08 З 4 10 км ясно +29.9 +5.1 21 +28 +33 жарко 1017.8 1013.7
15 25.08 СЗ 3 10 км ясно +27.9 +4.0 22 +26 +27 жарко 1017.9 1013.8 +30.1
18 25.08 СЗ 2 10 км ясно +21.3 +4.8 34 +22 +22 комфорт 1019.5 1015.3

 

Местоположение метеостанции Палласовка (Волгоградская область, Россия): широта 50.05 долгота 46.88 высота над уровнем моря 37 м.

В архиве по умолчанию представлена погода в Палласовке за последнюю неделю. Архивные данные за месяц целиком и за предыдущие месяцы, начиная с января 2011 года, Вы можете получить, выбрав интересующий диапазон дат из раскрывающегося списка и нажав кнопку "Ввод!".


*Определитесь, кто Вы:
робот инопланетянин человек

Внимание! Время в таблицах - всемирное. Для получения местного времени необходимо прибавить поправку, которая равна 3 ч.

Смотрите также архив погоды в соседних городах и на ближайших метеорологических станциях:

Погода в Жанаказане (Западно-Казахстанская область, Казахстан) (62 км)
Погода в Жанибеке (Западно-Казахстанская область, Казахстан) (73 км)
Погода в Новоузенске (Саратовская область, Россия) (98 км)
Погода в Красном Куте (Саратовская область, Россия) (100 км)
Погода в Эльтоне (Волгоградская область, Россия) (102 км)
Погода в Камышине (Волгоградская область, Россия) (108 км)
Погода в Александровом Гае (Саратовская область, Россия) (120 км)
Погода в Казталовке (Западно-Казахстанская область, Казахстан) (133 км)
Погода в Урде (Западно-Казахстанская область, Казахстан) (148 км)
Погода в Сплавнухе (Саратовская область, Россия) (155 км)

Пояснения к столбцам:

Ветер - указаны скорость ветра в м/с - средняя за 10 мин, порывы в срок и между сроками (в фигурных скобках) и направление, откуда дует ветер: С - северный, СВ - северо-восточный, В - восточный, ЮВ - юго-восточный, Ю - южный, ЮЗ - юго-западный, З - западный, СЗ - северо-западный.
Видимость - горизонтальная дальность видимости в метрах или километрах. При видимости от 1 до 10 км при отсутствии осадков обычно наблюдается дымка, при ухудшении видимости до 1 км и менее - туман. В сухую погоду видимость может ухудшаться дымом, пылью или мглою.
Явления - указаны атмосферные явления, наблюдавшиеся в срок или в последний час перед сроком; фигурными скобками обозначены явления, наблюдавшиеся между сроками (за 1-3 часа до срока); квадратными скобками обозначены град или гололедные отложения с указанием их диаметра в мм.
Облачность - указаны через наклонную черту общая и нижняя облачность в баллах и высота нижней границы облаков в метрах; квадратными скобками обозначены формы облаков: Ci - перистые, Cs - перисто-слоистые, Cc - перисто-кучевые, Ac - высококучевые, As - высокослоистые, Sc - слоисто-кучевые, Ns - слоисто-дождевые, Cu - кучевые, Cb - кучево-дождевые. Подробнее классификацию облаков см. в Атласе облаков (PDF).
T - Температура воздуха - температура, измеренная на высоте 2 м над землей.
Td - Температура точки росы - температура, при понижении до которой содержащийся в воздухе водяной пар достигнет насыщения.
f - Относительная влажность воздуха - влажноcть воздуха, измеренная на высоте 2 м над землей.
Te - Эффективная температура - температура, которую ощущает одетый по сезону человек в тени. Характеристика душности погоды. При расчете учитывается влияние влажности воздуха и скорости ветра на теплоощущения человека.
Tes - Эффективная температура на солнце - температура, которую ощущает человек, с поправкой на солнечный нагрев. Характеристика знойности погоды. Зависит от высоты солнца над горизонтом, облачности и скорости ветра. Ночью, в пасмурную погоду, а также при ветре 12 м/с и более поправка равна нулю.
P - Атмосферное давление - приведенное к уровню моря атмосферное давление.
Po - Атмосферное давление - измеренное на уровне метеостанции атмосферное давление.
Tmin - Минимальная температура - минимум температуры воздуха на высоте 2 м над землей.
Tmax - Максимальная температура - максимум температуры воздуха на высоте 2 м над землей.
R - Количество осадков - Количество выпавших осадков за период времени, мм. При наведении курсора мыши на число - период времени, за который выпало указанное количество осадков.
R24 - Количество осадков - Количество выпавших осадков за 24 часа, мм.
S - Снежный покров - Высота снежного покрова, см. При наведении курсора мыши на число - состояние снежного покрова и степень покрытия местности в баллах.